Airport Information

KMFR - Rogue Valley Intl Medford Airport

KMFR 251653Z 00000KT 10SM CLR 08/M02 A3023 RMK AO2 SLP238 T00831017


  • General Information

  • Coordinates: N 42°22'27"/ W 122°52'24"
  • Location: N/A
  • Surveyed Elevation: 1335 MSL

Operations

Flow Name Active Runways Conditions

Green background denotes normal operations.


Common Frequencies

Callsign Frequency Position Name

More at the Document Center


Charts


Flights